Flag for Uzbekistan Weather past 2 weeks in Tashkent, Uzbekistan

Now
63 °F

Partly sunny.


Feels Like: 63 °F
Forecast: 61 / 74 °F
Wind: 8 mph from Southeast

Location: Tashkent

Current Time: Oct 2, 2014 at 10:40:35 AM

Latest Report: Oct 2, 2014 at 10:00 AM


Visibility: 4 mi

Pressure: 30.09 "Hg

Humidity: 83%

Dew point: 57 °F

Location of TashkentLocation

Historic Weather in Tashkent — Graph

°F

Tashkent temperature yesterday

Maximum temperature yesterday: 72 °F (at 12:00 AM)
Minimum temperature yesterday: 59 °F (at 11:30 PM)
Average temperature yesterday: 65 °F

Past Weeks' High & Low Weather Summary

 TemperatureHumidityPressure
High93 °F (Sep 17, 1:00 PM)100% (Oct 2, 8:00 AM)30.30 "Hg (Oct 2, 8:00 AM)
Low45 °F (Sep 20, 4:00 AM)8% (Sep 22, 1:30 PM)29.65 "Hg (Sep 27, 2:00 AM)
Average70 °F38%29.96 "Hg
* Reported Sep 17 9:00 AM — Oct 2 9:00 AM, Tashkent, Weather by CustomWeather, © 2014

Note: Actual official high and low records may vary slightly from our data, if they occured in-between our weather recording intervals... More about our weather records

Advertising

Tashkent weather history for previous 24 hours

 ConditionsComfort  
Time TempWeatherWind HumidityBarometerVisibility
9:00 AM
Oct 2
59 °FSprinkles. Overcast.6 mph94%30.12 "Hg4 mi
8:30 AM59 °FSprinkles. Overcast.3 mph94%30.12 "Hg4 mi
8:00 AM57 °FMostly cloudy.6 mph100%30.12 "Hg4 mi
7:30 AM57 °FSprinkles. Overcast.6 mph94%30.09 "Hg4 mi
7:00 AM57 °FSprinkles. Overcast.8 mph88%30.09 "Hg4 mi
6:30 AM55 °FSprinkles. Overcast.6 mph94%30.07 "HgN/A
6:00 AM57 °FMostly cloudy.8 mph88%30.09 "HgN/A
5:30 AM57 °FMostly cloudy.3 mph88%30.04 "HgN/A
5:00 AM57 °FMostly cloudy.3 mph88%30.07 "HgN/A
4:30 AM57 °FPassing clouds.3 mph88%30.01 "HgN/A
4:00 AM57 °FClear.3 mph88%30.01 "Hg10 mi
3:30 AM57 °FClear.3 mph82%30.01 "Hg10 mi
3:00 AM57 °FClear.1 mph82%30.01 "Hg10 mi
2:30 AM57 °FClear.3 mph88%30.01 "Hg10 mi
2:00 AM57 °FPassing clouds.3 mph82%30.01 "HgN/A
1:30 AM57 °FPassing clouds.3 mph82%30.01 "HgN/A
1:00 AM57 °FClear.3 mph82%30.04 "Hg10 mi
12:30 AM59 °FClear.1 mph77%30.04 "Hg10 mi
12:00 AM59 °FClear.1 mph72%30.04 "Hg10 mi
11:30 PM
Oct 1
59 °FPassing clouds.6 mph72%30.07 "HgN/A
11:00 PM61 °FClear.1 mph68%30.07 "Hg10 mi
10:30 PM63 °FPassing clouds.13 mph64%30.07 "HgN/A
10:00 PM61 °FPassing clouds.15 mph68%30.09 "HgN/A
9:30 PM61 °FPassing clouds.15 mph68%30.09 "HgN/A
9:00 PM61 °FPassing clouds.10 mph68%30.09 "HgN/A
8:30 PM61 °FPassing clouds.10 mph72%30.09 "HgN/A
8:00 PM61 °FPartly cloudy.6 mph77%30.09 "HgN/A
7:30 PM61 °FPartly cloudy.6 mph88%30.12 "HgN/A
7:00 PM61 °FMostly cloudy.3 mph83%30.09 "HgN/A
6:30 PM61 °FSprinkles. Mostly cloudy.3 mph83%30.12 "HgN/A
6:00 PM61 °FSprinkles. Overcast.3 mph77%30.12 "Hg4 mi
5:30 PM63 °FSprinkles. Overcast.8 mph68%30.12 "Hg4 mi
5:00 PM63 °FSprinkles. Overcast.10 mph68%30.12 "Hg4 mi
4:30 PM63 °FSprinkles. Overcast.13 mph64%30.12 "Hg4 mi
4:00 PM66 °FSprinkles. Mostly cloudy.10 mph49%30.18 "HgN/A
3:30 PM68 °FSprinkles. More clouds than sun.8 mph40%30.15 "HgN/A
3:00 PM68 °FSprinkles. More clouds than sun.10 mph40%30.18 "HgN/A
2:30 PM70 °FMore clouds than sun.10 mph38%30.12 "HgN/A
2:00 PM70 °FPartly sunny.10 mph40%30.12 "HgN/A
1:30 PM72 °FPassing clouds.8 mph38%30.12 "HgN/A
1:00 PM72 °FPassing clouds.8 mph38%30.12 "HgN/A
12:30 PM72 °FSunny.3 mph38%30.12 "Hg10 mi
12:00 PM72 °FSunny.3 mph36%30.15 "Hg10 mi
11:30 AM72 °FSunny.3 mph38%30.15 "Hg10 mi
11:00 AM70 °FSunny.3 mph38%30.15 "Hg10 mi
10:30 AM68 °FPassing clouds.6 mph46%30.18 "HgN/A
10:00 AM66 °FBroken clouds.3 mph52%30.18 "HgN/A
Weather by CustomWeather, © 2014

See weather overviewHow to use our weather pages